Home > Weather > Alice Springs > Past weeks

Flag for Australia Weather for the Past 2 Weeks in Alice Springs, Northern Territory, Australia

Now
55 °F

Clear.


Feels Like: 55 °F
Forecast: 53 / 81 °F
Wind: 5 mph from West

Location: Alice Springs Aerodrome

Current Time: May 4, 2016 at 3:50:26 AM

Latest Report: May 4, 2016 at 3:30 AM


Visibility: N/A

Pressure: 30.07 "Hg (28.05 "Hg at 581m altitude)

Humidity: 59%

Dew Point: 41 °F

Location of Alice SpringsLocation

Historic Weather in Alice Springs — Graph

°F

Alice Springs Temperature Yesterday

Maximum temperature yesterday: 81 °F (at 3:00 PM)
Minimum temperature yesterday: 61 °F (at 5:30 AM)
Average temperature yesterday: 69 °F

High & Low Weather Summary for the Past Weeks

 TemperatureHumidityPressure
High95 °F (Apr 20, 3:30 PM)94% (May 2, 7:30 AM)30.30 "Hg (May 2, 7:30 AM)
Low45 °F (Apr 25, 6:00 AM)9% (Apr 19, 2:30 PM)29.92 "Hg (Apr 19, 2:00 PM)
Average71 °F36%30.08 "Hg
* Reported Apr 19 2:30 AM — May 4 2:30 AM, Alice Springs, Weather by CustomWeather, © 2016

Note: Actual official high and low records may vary slightly from our data, if they occured in-between our weather recording intervals... More about our weather records

Advertising

Alice Springs Weather History for the Previous 24 Hours

Scroll right to see more
 ConditionsComfort  
Time TempWeatherWind HumidityBarometerVisibility
2:30 AM
Wed, May 4
54 °FClear.3 mph58%30.07 "HgN/A
2:00 AM55 °FClear.5 mph59%30.07 "HgN/A
1:30 AM55 °FClear.1 mph55%30.07 "HgN/A
12:30 AM57 °FClear.6 mph55%30.07 "HgN/A
11:30 PM
Tue, May 3
61 °FClear.6 mph52%30.07 "HgN/A
11:00 PM63 °FClear.6 mph49%30.07 "HgN/A
10:30 PM63 °FClear.5 mph49%30.07 "HgN/A
10:00 PM63 °FClear.3 mph52%30.09 "HgN/A
8:30 PM64 °FClear.1 mph49%30.07 "HgN/A
8:00 PM66 °FClear.3 mph43%30.07 "HgN/A
7:30 PM68 °FClear.3 mph43%30.07 "HgN/A
7:00 PM70 °FClear.5 mph35%30.04 "HgN/A
6:30 PM72 °FClear.6 mph31%30.04 "HgN/A
5:30 PM79 °FSunny.6 mph24%30.01 "HgN/A
4:30 PM81 °FSunny.6 mph23%30.01 "Hg10 mi
4:00 PM81 °FPassing clouds.6 mph21%30.01 "HgN/A
3:30 PM81 °FPassing clouds.6 mph21%30.01 "HgN/A
3:00 PM81 °FSunny.6 mph23%30.01 "HgN/A
2:00 PM79 °FSunny.7 mph26%30.04 "Hg10 mi
1:30 PM79 °FSunny.3 mph26%30.04 "Hg10 mi
1:00 PM79 °FPassing clouds.7 mph30%30.07 "HgN/A
12:30 PM77 °FPassing clouds.6 mph42%30.07 "HgN/A
12:00 PM77 °FBroken clouds.5 mph47%30.09 "HgN/A
11:00 AM73 °FSunny.3 mph57%30.12 "Hg10 mi
10:30 AM72 °FSunny.No wind57%30.09 "Hg10 mi
10:00 AM70 °FSunny.1 mph57%30.12 "HgN/A
9:30 AM68 °FBroken clouds.3 mph64%30.09 "HgN/A
8:30 AM64 °FPassing clouds.5 mph68%30.09 "HgN/A
7:30 AM63 °FSunny.1 mph83%30.07 "HgN/A
7:00 AM63 °FSunny.2 mph77%30.07 "HgN/A
6:30 AM61 °FSunny.No wind88%30.04 "HgN/A
6:00 AM61 °FClear.No wind83%30.04 "HgN/A
5:30 AM61 °FClear.No wind83%30.04 "HgN/A
4:30 AM63 °FClear.No wind73%30.04 "HgN/A
4:00 AM63 °FClear.No wind77%30.04 "HgN/A
3:30 AM63 °FClear.3 mph77%30.04 "HgN/A
Weather by CustomWeather, © 2016

See weather overviewHow to use our weather pages